Regional Weather Roundup
Issued by NWS Charleston, SC

Current Version | Previous Version | Text Only | Print | Product List | Glossary Off
Versions: 1 2 3 4 5 6 7 8 9 10 11 12 13 14 15 16 17 18 19 20 21 22 23 24 25 26 27 28 29 30 31 32 33 34 35 36 37 38 39 40 41 42 43 44 45 46 47 48 49 50
000 ASUS42 KCHS 250925 RWRCHS REGIONAL WEATHER ROUNDUP NATIONAL WEATHER SERVICE CHARLESTON SC 500 AM EDT SAT OCT 25 2014 NOTE: "FAIR" INDICATES FEW OR NO CLOUDS BELOW 12,000 FEET WITH NO SIGNIFICANT WEATHER AND/OR OBSTRUCTIONS TO VISIBILITY. NOT ALL STATIONS ARE QUALITY CONTROLLED BY THE NATIONAL WEATHER SERVICE. USE DATA WITH CAUTION...ESPECIALLY DEWPOINT OBSERVATIONS. SCZ027-030-031-034>040-042>050-251000- ...SOUTH CAROLINA... CITY SKY/WX TMP DP RH WIND PRES REMARKS N CHARLESTON CLEAR 51 48 89 CALM 29.98S WATERFRONT PRK N/A 59 N/A N/A NW3 N/A FORT JOHNSON NOT AVBL JOHNS ISLAND SUNNY 52 50 93 CALM 29.99S PINOPOLIS NOT AVBL MONCKS CORNER FAIR 46 46 100 CALM 29.98S FOG SUMMERVILLE FAIR 45 45 100 CALM 30.00S BEAUFORT MCAS CLEAR 51 49 92 CALM 29.99R BEAUFORT ARPT FAIR 52 52 100 CALM 29.98S HILTON HEAD IS N/A 52 50 93 W3 30.00S GEORGETOWN NOT AVBL WALTERBORO SUNNY 45 N/A N/A CALM 30.00S ORANGEBURG CLEAR 47 44 90 CALM 30.00R BARNWELL FAIR 43 41 93 CALM 30.01R AIKEN FAIR 43 43 100 CALM 30.04R MANNING FAIR 43 N/A N/A CALM 30.00R KINGSTREE NOT AVBL COLUMBIA CLEAR 44 40 85 W3 30.00S SUMTER CLEAR 48 48 97 NW1 29.98S FLORENCE CLEAR 49 44 83 NW3 29.98S MYRTLE BEACH CLEAR 50 45 81 CALM 29.98R N MYRTLE BEACH CLEAR 46 45 96 CALM 29.97S FOG $$ GAZ063-065-086>088-099>101-113>116-118-119-134-136>141-150-251000- ...GEORGIA... CITY SKY/WX TMP DP RH WIND PRES REMARKS SAVANNAH ARPT CLEAR 51 46 83 W3 30.00R HUNTER AAF CLEAR 47 46 95 W5 29.98R FORT STEWART CLEAR 46 44 93 CALM 29.98S STATESBORO NOT AVBL SYLVANIA SUNNY 48 47 97 CALM 30.01S CLAXTON FAIR 43 43 100 CALM 30.00S THOMSON N/A 43 43 100 CALM 30.05S AUGUSTA-BUSH PTCLDY 40 39 97 CALM 30.01R AUGUSTA-DANIEL CLEAR 52 48 86 N3 30.01S SWAINSBORO FAIR 46 46 100 MISG 30.01S VIDALIA CLEAR 46 45 93 CALM 30.00S ALMA CLEAR 45 44 97 CALM 29.99S FOG WAYCROSS CLEAR 49 48 97 CALM 30.00S JESUP FAIR 45 43 93 CALM 30.00S BRUNSWICK CLEAR 48 46 93 CALM 30.00S SAINT SIMONS CLEAR 51 50 96 CALM 29.99R $$ SCZ027-028-034-036>038-045-046-048>050-GAZ119-141-251000- ...LAKE AND SUPPLEMENTAL COASTAL OBSERVATIONS... STATION/POSITION TIME TEMP WIND PRES WAVE SWELL AIR SEA DIR/SP/G HT/PER HT/PER/DIR (UTC) (F) (DEG/KT/KT) (MB) (FT/S) (FT/S/D) UPR LAKE MARION NOT AVBL WINYAH BAY 0900 52 290/ 1 1014.0F LAKE MURRAY 0800 51 CALM / 1 1015.6S ACE BASIN NERRS 0900 52 CALM 1015.0S FORT PULASKI 0900 57 310/ 5/ 5 1015.7R SAPELO ISLAND NOT AVBL $$ ANZ835-935-AMZ111-154-330-350-352-354-374-450-454-472-251000- ...C-MAN AND BUOY OBSERVATIONS... STATION/POSITION TIME TEMP WIND PRES WAVE SWELL AIR SEA DIR/SP/G HT/PER HT/PER/DIR (UTC) (F) (DEG/KT/KT) (MB) (FT/S) (FT/S/D) FOLLY BEACH CMAN 0900 58 330/ 3/ 4 1015.7R BUOY 41004 0900 69 78 340/ 6/ 10 1014.5R 3/10 2/10 BUOY 41008 0900 70 74 20/ 8/ 10 1015.2S 2/10 2/ 90/10 5E ST. MARYS GA 0900 75 N/A 2/10 FRYING PAN BUOY 0900 66 73 360/ 4/ 8 1015.4S 2/10 2/ 90/10 BUOY 41025 0900 65 330/ 10/ 12 1014.0S 3/ 9 2/ 60/ 9 CAPE LOOKOUT NC 0900 60 340/ 6/ 8 1014.2R BUOY 41002 0829 71 77 20/ 6/ 10 1013.7F 4/ 9 3/ 10/ 9 BUOY 41010 0900 74 82 10/ 10/ 14 1012.6S 3/ 4 2/ 80/ 9 BUOY 41012 NOT AVBL ST AUGUSTINE FL 0900 62 320/ 9/ 11 1015.2R CAPERS NEARSHORE NOT AVBL FRIPP NEARSHORE NOT AVBL $$

USA.gov is the U.S. government's official web portal to all federal, state and local government web resources and services.